Location: Azalea Creek
(37.1280°N, 119.2623°W)
Time: 00:08:09
(UTC+00:00)

USA 229 DEB - Pass Details

Date: 17 February 2020
Orbit: 988 x 1224 km, 63.4° (Epoch: 26 March)

Event Time Altitude Azimuth Distance (km) Brightness Sun altitude
Rises 03:00:34 0° 206° (SSW) 3,685 6.9 -17.1°
Reaches altitude 10° 03:03:06 10° 205° (SSW) 2,749 6.2 -17.6°
Maximum altitude 03:09:32 79° 119° (ESE) 1,039 3.5 -18.9°
Enters shadow 03:15:39 13° 35° (NE) 2,650 5.4 -20.1°
